User: anonymous   Login
Location: *
(32.3300°N, 34.8500°E)
Time: 06:57:59
(UTC+00:00)
Language:

SL-16 R/B - Orbit

View from above orbital plane
View from above orbital plane
View from above satellite
View from above satellite

Ground track
Ground track

The orbit data is extracted from the following two-line orbital elements,

1 28353U 04021B   19342.73814311 +.00000029 +00000-0 +40379-4 0  9993
2 28353 071.0016 341.4071 0007617 268.4983 091.5267 14.14230535800038
Epoch (UTC): 08 December 2019 17:42:55
Eccentricity: 0.0007617
inclination: 71.0016°
perigee height: 839 km
apogee height: 850 km
right ascension of ascending node: 341.4071°
argument of perigee: 268.4983°
revolutions per day: 14.14230535
mean anomaly at epoch: 91.5267°
orbit number at epoch: 80003

The dashed part of the orbit path shows where the satellite is in the earth's shadow,  

DLR